Theta_e
292 293 291 290 290 290 288 290 287 290 291 295 297 298 300 301 301 302 301 300 300 300 301 300 297 297 297 298 298 298 296 296 296 296 295 292 289 287 285 285 283 282 282 282
286 292 291 289 291 290 290 291 292 292 292 299 300 301 301 300 300 300 301 302 304 301 299 298 298 296 296 296 297 296 295 294 295 294 291 289 287 286 283 283 283 282 281 281
282 289 288 284 288 291 292 293 293 289 294 299 298 299 300 300 300 299 301 302 303 303 302 301 300 298 296 296 296 294 292 292 291 290 288 287 286 284 282 282 282 281 281 281
283 285 278 290 296 296 293 295 296 294 296 299 299 301 301 302 301 301 302 301 302 303 303 303 300 298 296 295 293 291 290 289 289 287 287 286 285 283 282 282 281 281 280 281
280 281 285 289 293 292 291 291 297 296 297 299 300 300 300 303 303 302 303 304 303 302 300 299 298 296 292 289 290 288 288 288 288 287 286 285 284 283 282 281 281 281 281 280
282 278 276 287 293 294 295 286 297 298 297 298 299 292 297 301 298 299 298 297 296 296 294 294 295 291 288 287 287 286 287 288 288 287 285 284 284 284 284 282 281 280 280 281
280 279 283 290 293 294 283 287 290 295 298 297 295 298 302 296 297 295 293 292 292 292 291 291 289 287 286 286 285 286 286 286 285 285 284 285 284 284 283 281 280 279 279 279
282 280 278 290 290 289 289 291 291 292 293 293 295 294 294 292 292 292 291 290 289 288 287 286 285 285 284 284 284 284 284 284 284 284 284 284 283 282 282 281 279 279 279 279
284 284 292 293 293 295 293 290 292 294 294 292 291 291 292 291 290 289 288 287 284 283 282 282 282 284 283 282 282 282 282 281 282 283 283 283 282 281 281 281 280 279 279 279
283 288 289 291 294 295 292 292 294 293 290 290 290 291 290 288 288 287 284 283 281 281 281 280 281 281 281 281 281 280 280 281 282 282 282 283 283 283 282 282 281 280 280 280
284 287 289 290 291 292 291 291 291 289 288 288 289 289 289 286 284 283 282 281 280 280 280 279 281 281 282 282 283 283 282 281 282 282 283 282 283 283 282 283 284 282 283 283
280 286 286 289 291 288 287 288 289 288 287 286 285 285 284 283 282 282 281 280 279 279 278 278 278 278 280 284 284 282 281 282 282 282 282 282 281 279 284 284 285 286 286 285
285 288 289 290 289 288 287 287 285 285 285 284 284 283 283 281 281 280 281 280 278 276 276 275 274 273 274 279 283 282 282 281 281 280 280 279 279 279 278 281 284 284 284 284
288 287 285 288 287 285 284 285 282 280 280 280 280 280 280 278 278 278 276 276 275 274 272 272 272 270 271 277 281 280 280 279 281 280 281 280 280 280 281 280 279 279 280 280
286 285 286 281 280 281 281 281 281 281 280 280 279 279 278 276 274 273 272 272 272 271 270 270 269 268 269 275 277 278 279 278 278 278 278 278 278 278 279 279 279 276 277 276
275 275 276 276 278 277 277 278 280 278 277 276 275 273 272 272 271 269 268 270 271 266 266 266 265 265 267 272 274 273 272 272 275 275 274 275 275 275 275 275 275 274 276 275
270 273 273 273 274 274 273 272 273 274 273 273 272 270 269 267 266 263 263 263 262 261 262 262 263 264 265 268 271 271 271 270 270 272 273 273 273 273 273 273 273 273 272 269
263 266 266 267 270 272 269 267 268 268 268 270 270 269 268 267 265 263 262 262 261 259 258 258 264 263 263 265 267 268 268 268 269 268 269 269 269 270 270 271 270 269 267 268
262 262 262 262 263 266 265 264 263 263 263 266 266 263 263 263 263 262 263 262 262 261 256 256 263 261 263 265 265 267 267 266 266 265 265 263 266 266 267 268 267 267 266 266
260 260 260 259 259 260 260 260 261 260 261 261 260 259 258 257 257 256 256 253 253 254 254 257 259 259 260 259 263 265 265 266 265 264 265 265 265 264 263 262 264 264 264 264
258 258 258 257 257 257 257 258 258 257 257 258 257 255 254 254 254 257 259 257 255 255 257 258 259 260 260 260 262 262 263 263 263 263 263 263 263 262 262 262 262 262 262 262
256 256 256 256 255 255 255 257 257 257 256 256 256 255 255 255 255 255 253 257 257 257 260 261 260 258 258 260 261 261 260 260 260 260 260 260 260 261 260 260 260 261 260 260
255 255 255 255 254 254 255 255 256 256 255 256 256 256 256 256 258 259 257 258 261 260 262 262 261 260 259 260 259 260 260 259 259 259 259 259 259 259 259 259 260 259 259 259
255 255 256 256 257 256 254 255 255 255 255 255 255 256 258 257 256 258 258 258 258 258 259 260 261 261 257 258 258 258 258 258 258 258 258 255 258 258 258 258 258 259 258 257
254 255 256 256 255 255 255 256 255 255 254 253 253 254 255 256 256 255 256 256 257 256 256 257 258 257 256 256 257 257 257 257 257 256 257 257 257 257 257 257 256 257 257 257
253 253 253 253 253 255 255 255 254 255 254 252 251 252 253 253 254 254 254 254 254 254 254 254 254 254 255 255 255 255 256 256 256 256 256 256 256 256 256 256 256 256 256 256
253 254 254 252 252 252 252 253 252 251 252 252 250 250 251 251 251 252 251 252 252 252 252 252 253 253 253 253 253 254 254 254 254 254 255 255 255 255 255 255 256 256 256 256
Wind_Speed
25 23 11 8 11 22 23 28 23 29 27 36 24 20 21 20 22 16 15 12 12 12 12 12 11 10 13 14 13 14 15 16 16 13 15 13 13 12 12 13 13 14 14 13
20 24 19 22 16 14 25 28 24 31 29 34 27 21 19 17 14 15 16 18 17 11 12 12 14 14 14 15 15 15 16 16 16 14 13 13 13 13 13 13 13 13 15 15
14 17 14 18 25 25 23 23 24 24 32 24 24 21 19 18 16 20 21 20 18 15 12 10 11 10 13 13 11 14 14 12 13 13 13 13 13 13 13 14 14 15 14 14
7 2 15 8 17 24 27 29 26 22 25 28 26 20 12 15 17 19 17 16 16 15 13 10 7 9 9 8 11 12 12 12 11 12 13 13 14 14 13 12 13 14 14 14
9 12 15 16 9 7 10 22 23 26 30 32 28 15 26 22 19 21 19 16 10 10 10 9 8 5 6 7 9 10 12 12 13 13 13 13 13 13 12 11 11 12 12 13
16 19 24 18 16 4 3 11 21 18 27 26 21 12 20 3 4 8 5 4 6 7 8 8 6 3 7 7 8 10 10 10 10 11 12 13 13 13 11 11 11 9 9 10
18 15 11 13 25 4 8 10 9 6 18 19 12 14 10 4 3 2 4 8 8 8 9 8 6 3 4 5 8 7 7 8 9 10 11 11 10 9 10 10 9 9 10 8
7 10 9 3 4 10 2 6 11 16 9 9 8 8 6 3 5 6 7 6 5 7 6 7 4 1 3 4 3 5 7 8 8 9 7 8 11 10 10 11 11 10 10 8
10 10 3 4 5 7 5 5 17 15 17 8 9 5 6 3 3 6 5 6 4 3 2 4 5 2 2 3 6 7 7 7 8 9 9 10 12 12 10 10 9 10 9 8
5 5 11 9 9 9 5 13 17 12 8 5 10 6 7 5 3 3 3 4 2 1 3 4 4 4 5 5 5 7 8 8 8 8 9 8 7 8 9 9 8 8 8 8
9 11 12 13 8 6 8 10 11 6 7 9 8 11 9 4 1 1 2 1 0 2 4 4 5 8 6 5 6 8 8 8 8 7 8 8 6 6 6 8 10 10 9 9
9 13 13 15 6 3 6 9 9 9 7 4 7 9 3 1 0 3 5 4 5 5 5 5 7 8 6 5 5 6 7 7 6 6 7 6 6 5 7 6 7 8 11 10
18 20 15 15 8 6 6 3 6 8 7 5 2 4 3 3 2 2 3 5 7 7 5 5 6 7 5 3 5 4 6 6 5 5 5 6 6 6 7 4 6 6 6 8
14 7 9 13 9 4 6 3 2 3 4 3 2 2 1 3 4 5 5 5 7 7 5 6 7 6 6 4 6 6 7 6 5 5 5 5 6 5 5 7 6 4 3 4
14 13 8 2 3 5 4 4 5 4 2 1 3 2 4 7 8 8 7 8 9 8 9 8 7 9 9 6 4 7 7 5 5 4 4 4 4 4 4 5 5 5 5 5
5 4 5 8 5 2 2 4 5 4 2 1 3 5 6 7 8 8 8 6 7 8 9 8 7 7 8 5 5 6 7 8 6 5 4 4 4 5 5 4 5 5 5 5
5 5 3 4 3 3 1 1 2 3 2 1 4 8 9 8 7 8 9 10 11 11 8 8 8 8 7 6 5 5 4 5 7 5 5 4 3 4 4 4 5 4 4 3
6 6 7 8 4 2 3 3 2 5 4 5 0 6 9 7 6 5 8 10 10 11 11 8 6 6 7 6 6 5 5 5 5 5 4 4 4 3 3 3 3 4 3 3
7 6 7 7 8 3 2 2 2 4 6 4 4 8 9 9 7 6 4 8 10 9 9 9 9 8 8 8 6 5 5 6 5 5 5 5 4 3 3 2 3 3 4 4
7 6 5 5 7 7 4 5 3 7 8 7 9 9 11 9 6 8 9 12 7 4 4 6 6 8 7 9 8 5 6 7 6 5 4 4 4 3 3 3 3 3 3 3
8 6 5 7 5 7 8 5 5 8 8 7 11 10 11 8 6 3 6 9 7 6 6 8 7 6 6 6 6 7 7 7 6 5 4 4 3 3 3 2 2 1 1 2
5 4 5 6 6 10 10 7 7 9 10 11 11 9 11 12 10 10 8 8 3 5 5 6 6 7 7 9 8 8 7 7 5 4 4 4 3 3 3 2 2 1 2 2
4 5 6 8 9 8 9 8 9 10 12 11 11 10 10 7 5 5 7 6 5 7 6 6 8 11 11 7 6 6 6 6 5 4 3 3 3 3 3 3 3 3 3 4
6 7 8 7 8 8 11 9 9 10 10 10 11 9 8 8 8 6 6 7 8 8 7 7 8 10 7 4 4 4 4 3 3 3 3 3 3 3 3 4 4 5 5 5
7 8 8 8 9 8 8 6 8 9 9 10 11 10 10 8 6 3 5 5 9 7 6 8 9 8 4 4 4 4 3 3 3 3 3 4 4 5 5 5 5 6 6 6
7 6 7 9 7 6 6 6 6 6 5 7 8 7 7 6 5 5 5 6 5 5 4 4 4 4 4 4 4 4 4 5 5 5 5 6 6 6 6 7 7 7 7 7
6 8 6 7 7 7 7 7 7 6 5 5 6 5 5 5 5 5 5 4 4 3 3 4 4 4 4 4 4 5 5 5 6 6 6 7 7 7 8 8 8 8 7 7
Wind_Direction
248 257 255 248 220 214 215 226 223 247 240 258 257 256 260 278 285 285 269 262 242 234 233 229 226 228 232 229 212 201 207 209 209 201 197 186 180 178 175 177 179 179 174 175
253 256 250 255 257 238 220 230 239 246 253 251 261 262 263 261 265 271 270 274 272 240 236 224 225 223 222 225 213 201 207 211 205 199 187 184 176 174 175 180 178 176 180 176
261 259 255 242 237 242 245 239 236 238 244 264 266 260 261 265 254 253 260 266 272 273 267 250 242 230 227 226 204 199 204 201 197 188 186 182 173 173 180 184 175 181 181 177
249 255 252 249 251 236 240 245 242 246 255 256 256 271 268 246 258 265 263 263 266 271 278 276 252 238 238 199 192 193 200 198 191 187 187 180 177 180 178 179 183 181 182 183
255 250 282 285 272 206 216 250 245 246 252 257 265 285 274 261 248 255 265 272 270 275 281 280 267 243 193 183 188 192 201 199 191 188 183 179 183 179 173 170 177 182 178 174
240 250 259 253 248 211 196 257 255 234 244 253 260 245 262 245 196 238 258 292 302 300 292 284 288 218 175 187 187 202 198 197 185 181 178 178 175 175 175 173 169 163 162 166
237 249 253 258 273 144 226 290 339 263 229 250 245 232 275 25 321 324 332 315 317 304 293 307 314 187 194 176 201 181 158 154 162 170 171 170 164 160 156 153 145 146 144 147
235 233 247 20 136 226 24 339 338 315 295 281 276 309 294 307 284 304 314 324 327 313 322 340 340 176 158 191 138 134 138 143 150 150 148 148 145 143 148 141 143 144 143 155
245 259 164 224 243 251 192 272 290 288 291 279 281 275 284 270 290 303 319 317 327 303 341 6 355 347 164 129 133 121 117 120 129 133 137 144 142 143 144 153 158 157 166 170
332 259 283 287 273 257 276 235 237 245 274 280 274 275 278 284 265 287 335 314 316 269 78 64 27 40 77 96 102 108 112 118 126 127 132 137 141 149 152 161 163 164 171 179
269 268 278 273 254 245 255 268 274 252 239 253 270 266 255 261 295 306 290 250 74 103 82 62 79 80 86 109 121 119 117 123 127 131 137 142 143 158 169 179 180 177 185 184
263 279 276 275 297 268 282 298 308 287 280 225 238 267 239 117 312 221 187 141 99 76 81 67 69 65 36 50 103 125 130 139 142 140 141 136 131 99 100 141 168 179 175 178
257 268 272 281 275 252 258 278 296 289 266 261 210 284 262 146 136 183 115 111 109 113 112 109 82 67 17 24 117 121 130 125 113 117 127 132 139 142 136 131 134 146 157 193
244 221 252 248 260 235 268 279 316 322 338 332 238 149 167 114 110 89 70 76 87 91 74 72 79 58 347 341 123 121 119 121 137 141 149 154 161 161 161 163 166 142 106 145
227 219 263 334 279 258 292 299 237 226 248 323 339 74 119 120 103 89 77 73 73 68 56 49 44 27 354 347 106 125 129 128 128 133 134 136 138 141 139 152 153 140 137 78
333 245 243 232 202 206 260 269 237 204 200 143 110 64 50 74 94 89 67 55 96 70 44 43 40 347 346 4 72 80 78 92 104 112 116 120 128 137 137 143 153 159 164 145
296 276 276 238 186 167 152 357 338 42 16 92 130 117 100 87 72 80 78 79 86 73 51 44 6 351 4 10 55 79 90 86 95 100 106 119 136 143 146 156 157 171 143 127
319 315 329 342 335 195 123 67 36 75 83 354 252 116 112 103 105 105 106 107 94 71 56 14 7 12 20 30 52 67 70 71 70 82 90 89 87 93 123 135 150 158 138 162
350 339 346 350 342 355 42 41 75 91 53 49 64 67 78 79 92 94 78 87 78 75 22 359 11 32 33 33 40 64 76 85 80 72 75 87 78 75 95 111 130 143 147 147
340 346 4 26 21 9 42 19 41 80 70 104 106 89 84 66 64 73 73 68 53 49 335 8 23 40 36 34 34 59 68 67 71 69 62 77 85 88 85 73 105 125 145 157
341 350 7 36 34 31 34 20 55 71 70 82 97 99 97 77 46 29 88 78 26 26 47 48 41 41 40 37 46 52 55 59 55 50 48 52 71 63 67 72 88 133 178 203
343 2 43 52 49 50 31 33 64 83 82 81 86 90 90 85 80 72 43 74 56 27 59 58 53 44 47 45 48 50 53 56 55 52 50 38 31 25 21 1 335 303 265 251
31 47 62 61 61 65 57 45 53 68 75 73 79 80 79 76 59 83 81 32 60 57 59 70 59 49 43 47 48 49 48 46 41 39 37 24 9 350 333 318 307 291 280 270
71 67 71 77 83 81 74 53 61 63 69 73 66 51 69 84 67 49 66 61 51 50 45 49 43 45 40 37 37 40 39 30 19 3 346 321 308 296 282 281 277 274 266 260
58 60 60 69 77 74 79 73 74 64 62 62 59 52 48 43 70 45 45 45 39 44 44 28 33 31 28 24 21 15 2 351 343 328 319 306 297 290 282 276 268 268 267 261
60 66 64 53 54 53 60 62 61 49 60 68 56 44 44 42 47 45 44 35 35 29 29 12 12 12 11 6 356 346 332 321 316 306 296 287 285 281 278 276 273 269 263 260
57 62 77 69 47 47 47 47 58 47 29 54 75 39 36 32 31 29 19 14 7 2 360 350 348 352 341 332 322 316 306 299 292 293 290 285 280 278 277 275 273 270 266 259